Showing default

BELINTERSAT 1, 41238

Orbit data source: Space-Track

BELINTERSAT 1, 41238 is a payload satellite owned by ZTZM (BY) in GEO that was launched on Fri, 15 Jan 2016 UTC via a CHANG ZHENG 3B launch vehicle from the Xichang Space Center, China (XSC). Payload-class satellites include a variety of spacecraft equipped with specific instruments for various scientific and technological missions. These include communications satellites like Starlink; space stations such as the ISS; scientific satellites like the Hubble; Earth observation satellites from companies like Planet Labs, Umbra, and HawkEye 360; GPS; miniature CubeSats for education and research; and military/defense satellites.

Not visible in the next 10 days
Identifier
41238, 2016-001A
Orbit
GEO
Country
Flag of UnknownUnknown / BELA
Related business
Manufacturer
CAST
Mission
Operational Commercial Communications
Bus & Motor
DFH-4, DFH-4 LAE
Mass
5,200 kg wet, ~2,500 kg dry
Launch date (UTC)
2016-01-15 (10 years ago)
Launch vehicle
CHANG ZHENG 3B
Launch site
Xichang Space Center, China (XSC)
Object type
Payload
Rocket body
Debris
Shape & HBR
Box + 2 Pan, 15.0 m
Radar Cross Section
34.063 m², Large (>1 m²)

Expand to show TLE details & history
Last TLE update: 9 hours ago

TLE from 9 hours ago
0 BELINTERSAT 1
1 41238U 16001A   25260.87961517  .00000086  00000-0  00000-0 0  9999
2 41238   0.0518 301.2871 0001145 237.3717 186.5546  1.00269712 35503
Epoch: 2025-09-17T21:06Z
TLE epoch observation values (Epoch: 2025-09-17T21:06:38.75Z)
Latitude
0.03089°
Longitude
51.50318°
Altitude
35,791.479 km
Speed
3.074 km/s
True Right ascension
00h 20m 51s
True Declination
0° 01' 51"
Sunlit
Object was in daylight at epoch
Visualization orbit readout
Latitude
Unknown
Longitude
Unknown
Altitude
Unknown
Speed
Unknown
Apparent Right ascension
Unknown
Apparent Declination
Unknown
Sunlit
N/A
Visualization observer readout
Local Sidereal Time
22:53:21
Azimuth
Unknown
Elevation
Unknown
Doppler factor
Unknown
Orbital elements
Apogee altitude
35,793.075 km
Perigee altitude
35,783.418 km
Semi-major axis
42,166.383 km
Eccentricity
0.00011
Inclination
0.0518°
RAAN
301.2871°
Arg. of periapsis
237.3717°
True anomaly
186.5531°
Mean anomaly
186.5546°
Eccentric anomaly
186.55385°
Mean motion
0.25066 °/min
Orbital period
1,436.18 mins
BSTAR
0
Loading maneuver chart data...
Computing Atmospheric mass density...
Loading historical data...
Loading historical data...
Loading historical data...
Loading historical data...
Loading historical data...
Loading historical data...
Loading historical data...
Other satellites on launch #1 in the year 2016 (2016-01-15 UTC)

Documentation

Showing up to 5 results
|